ASL79T LDDU-LYBE

Flight info

Callsign ASL79T
Flight time 0h 37m
Altitude 25000
Route MOKUN DCT NIK DCT ELGEB
Aircraft MD82/M-SDFGIRWY/S

Departure

Time 2026-04-29 19:08
Airport Dubrovnik Ruđer Bošković Airport (LDDU)

Arrival

Time 2026-04-29 19:45
Airport Belgrade Nikola Tesla Airport (LYBE)
Time Latitude Longitude Altitude Speed Heading
2026-04-29 18:45 42.56115 18.26253 535 ft 0 kts 208°
2026-04-29 18:58 42.56116 18.26254 535 ft 1 kts 208°
2026-04-29 18:58 42.56121 18.26257 535 ft 1 kts 208°
2026-04-29 18:58 42.56125 18.26261 535 ft 1 kts 208°
2026-04-29 18:59 42.56130 18.26264 535 ft 1 kts 208°
2026-04-29 18:59 42.56134 18.26267 535 ft 1 kts 208°
2026-04-29 18:59 42.56139 18.26270 535 ft 1 kts 208°
2026-04-29 18:59 42.56144 18.26274 535 ft 1 kts 208°
2026-04-29 19:00 42.56148 18.26277 535 ft 1 kts 208°
2026-04-29 19:00 42.56153 18.26280 535 ft 1 kts 208°
2026-04-29 19:00 42.56158 18.26285 535 ft 1 kts 242°
2026-04-29 19:00 42.56160 18.26293 534 ft 0 kts 288°
2026-04-29 19:02 42.56160 18.26291 534 ft 0 kts 290°
2026-04-29 19:03 42.56163 18.26284 534 ft 1 kts 297°
2026-04-29 19:03 42.56177 18.26247 534 ft 6 kts 298°
2026-04-29 19:03 42.56200 18.26190 535 ft 7 kts 299°
2026-04-29 19:03 42.56228 18.26124 535 ft 9 kts 300°
2026-04-29 19:04 42.56261 18.26049 535 ft 10 kts 301°
2026-04-29 19:04 42.56292 18.25967 535 ft 10 kts 295°
2026-04-29 19:04 42.56325 18.25879 535 ft 11 kts 298°
2026-04-29 19:04 42.56361 18.25786 535 ft 12 kts 298°
2026-04-29 19:05 42.56403 18.25682 535 ft 13 kts 298°
2026-04-29 19:05 42.56448 18.25568 535 ft 14 kts 298°
2026-04-29 19:05 42.56497 18.25445 535 ft 15 kts 298°
2026-04-29 19:05 42.56549 18.25313 534 ft 16 kts 298°
2026-04-29 19:06 42.56605 18.25174 534 ft 17 kts 298°
2026-04-29 19:06 42.56662 18.25027 534 ft 18 kts 298°
2026-04-29 19:06 42.56754 18.24792 534 ft 13 kts 298°
2026-04-29 19:07 42.56797 18.24701 534 ft 8 kts 317°
2026-04-29 19:07 42.56838 18.24675 534 ft 13 kts 351°
2026-04-29 19:07 42.56930 18.24805 534 ft 16 kts 109°
2026-04-29 19:07 42.56834 18.25059 532 ft 59 kts 118°
2026-04-29 19:08 42.56518 18.25840 536 ft 128 kts 119°
2026-04-29 19:08 42.56049 18.27098 659 ft 171 kts 123°
2026-04-29 19:08 42.55446 18.28550 1398 ft 180 kts 123°
2026-04-29 19:08 42.54785 18.29930 2395 ft 171 kts 127°
2026-04-29 19:09 42.54060 18.31232 3065 ft 173 kts 131°
2026-04-29 19:09 42.53152 18.32259 3636 ft 178 kts 164°
2026-04-29 19:09 42.51897 18.32418 4161 ft 182 kts 174°
2026-04-29 19:09 42.50576 18.32678 4658 ft 197 kts 171°
2026-04-29 19:10 42.49237 18.33038 5397 ft 196 kts 170°
2026-04-29 19:10 42.47895 18.33326 6103 ft 198 kts 176°
2026-04-29 19:10 42.46388 18.33500 5998 ft 240 kts 187°
2026-04-29 19:10 42.44760 18.33026 6707 ft 231 kts 196°
2026-04-29 19:11 42.43232 18.32533 7567 ft 224 kts 199°
2026-04-29 19:11 42.41738 18.31835 8182 ft 227 kts 204°
2026-04-29 19:11 42.40231 18.31159 8807 ft 235 kts 191°
2026-04-29 19:11 42.38612 18.31532 9415 ft 243 kts 148°
2026-04-29 19:12 42.37484 18.33281 9724 ft 266 kts 111°
2026-04-29 19:12 42.37166 18.35840 9960 ft 281 kts 94°
2026-04-29 19:12 42.36767 18.38434 10551 ft 284 kts 101°
2026-04-29 19:12 42.36655 18.40186 10932 ft 283 kts 81°
2026-04-29 19:13 42.37857 18.43184 11695 ft 276 kts 37°
2026-04-29 19:13 42.39365 18.44814 12219 ft 282 kts 34°
2026-04-29 19:13 42.40964 18.46450 12564 ft 292 kts 33°
2026-04-29 19:13 42.42607 18.48087 13110 ft 295 kts 32°
2026-04-29 19:14 42.44314 18.49631 13673 ft 296 kts 26°
2026-04-29 19:14 42.46132 18.50960 14167 ft 298 kts 26°
2026-04-29 19:14 42.47920 18.52430 14600 ft 303 kts 31°
2026-04-29 19:14 42.49619 18.54132 15102 ft 306 kts 35°
2026-04-29 19:15 42.51258 18.56003 15537 ft 309 kts 38°
2026-04-29 19:15 42.52853 18.57981 15959 ft 313 kts 40°
2026-04-29 19:15 42.54425 18.60038 16409 ft 315 kts 41°
2026-04-29 19:15 42.55979 18.62147 16855 ft 316 kts 41°
2026-04-29 19:16 42.57536 18.64302 17187 ft 322 kts 42°
2026-04-29 19:16 42.59102 18.66491 17568 ft 324 kts 41°
2026-04-29 19:16 42.60671 18.68696 17996 ft 326 kts 41°
2026-04-29 19:16 42.62252 18.70915 18404 ft 328 kts 41°
2026-04-29 19:17 42.63846 18.73156 18653 ft 332 kts 41°
2026-04-29 19:17 42.65479 18.75432 18814 ft 341 kts 41°
2026-04-29 19:17 42.67171 18.77787 18915 ft 355 kts 41°
2026-04-29 19:17 42.68910 18.80208 19315 ft 358 kts 41°
2026-04-29 19:18 42.70655 18.82637 19693 ft 362 kts 40°
2026-04-29 19:18 42.71821 18.84264 19974 ft 363 kts 41°
2026-04-29 19:18 42.74171 18.87543 20560 ft 366 kts 41°
2026-04-29 19:18 42.75956 18.90039 20984 ft 369 kts 40°
2026-04-29 19:19 42.77770 18.92515 21395 ft 369 kts 36°
2026-04-29 19:19 42.79803 18.94633 21823 ft 367 kts 28°
2026-04-29 19:19 42.81937 18.96554 22225 ft 369 kts 27°
2026-04-29 19:19 42.84106 18.98446 22654 ft 371 kts 27°
2026-04-29 19:20 42.86289 19.00346 23102 ft 373 kts 27°
2026-04-29 19:20 42.88482 19.02264 23520 ft 376 kts 27°
2026-04-29 19:20 42.90686 19.04214 23881 ft 379 kts 27°
2026-04-29 19:20 42.92893 19.06193 24265 ft 381 kts 27°
2026-04-29 19:21 42.95104 19.08200 24623 ft 383 kts 28°
2026-04-29 19:21 42.97335 19.10237 24863 ft 390 kts 28°
2026-04-29 19:21 42.99618 19.12328 24982 ft 400 kts 28°
2026-04-29 19:21 43.01964 19.14471 25027 ft 410 kts 28°
2026-04-29 19:22 43.04345 19.16649 25056 ft 415 kts 28°
2026-04-29 19:22 43.06779 19.18877 25064 ft 427 kts 28°
2026-04-29 19:22 43.09282 19.21169 25074 ft 439 kts 28°
2026-04-29 19:22 43.11848 19.23520 25075 ft 450 kts 28°
2026-04-29 19:23 43.14466 19.25925 25073 ft 457 kts 29°
2026-04-29 19:23 43.17109 19.28369 25089 ft 459 kts 29°
2026-04-29 19:23 43.19757 19.30830 25083 ft 460 kts 29°
2026-04-29 19:23 43.22411 19.33288 25071 ft 460 kts 29°
2026-04-29 19:24 43.25063 19.35736 25085 ft 460 kts 29°
2026-04-29 19:24 43.27720 19.38186 25074 ft 460 kts 29°
2026-04-29 19:24 43.30377 19.40638 25071 ft 460 kts 29°
2026-04-29 19:24 43.33033 19.43090 25090 ft 460 kts 29°
2026-04-29 19:25 43.35686 19.45547 25079 ft 460 kts 29°
2026-04-29 19:25 43.38345 19.48002 25076 ft 460 kts 28°
2026-04-29 19:25 43.40999 19.50451 25075 ft 460 kts 28°
2026-04-29 19:25 43.43653 19.52907 25075 ft 460 kts 29°
2026-04-29 19:26 43.46307 19.55370 25074 ft 460 kts 29°
2026-04-29 19:26 43.48961 19.57839 25091 ft 461 kts 29°
2026-04-29 19:26 43.51577 19.60286 25087 ft 461 kts 29°
2026-04-29 19:26 43.54234 19.62767 25066 ft 461 kts 29°
2026-04-29 19:27 43.56884 19.65238 25071 ft 460 kts 29°
2026-04-29 19:27 43.59531 19.67714 25069 ft 459 kts 29°
2026-04-29 19:27 43.62177 19.70195 25091 ft 460 kts 29°
2026-04-29 19:27 43.64821 19.72682 25090 ft 460 kts 29°
2026-04-29 19:28 43.67475 19.75168 25103 ft 461 kts 29°
2026-04-29 19:28 43.70125 19.77646 25100 ft 461 kts 29°
2026-04-29 19:28 43.72781 19.80130 25107 ft 461 kts 29°
2026-04-29 19:28 43.75435 19.82616 25108 ft 461 kts 29°
2026-04-29 19:29 43.78089 19.85107 25108 ft 461 kts 29°
2026-04-29 19:29 43.80740 19.87601 25118 ft 461 kts 29°
2026-04-29 19:29 43.83395 19.90107 24932 ft 465 kts 29°
2026-04-29 19:29 43.86039 19.92616 24375 ft 460 kts 29°
2026-04-29 19:30 43.88649 19.95102 23826 ft 450 kts 29°
2026-04-29 19:30 43.91203 19.97531 23319 ft 440 kts 29°
2026-04-29 19:30 43.93699 19.99900 22774 ft 430 kts 29°
2026-04-29 19:30 43.96143 20.02217 22245 ft 422 kts 29°
2026-04-29 19:31 43.98543 20.04491 21742 ft 414 kts 28°
2026-04-29 19:31 44.00898 20.06724 21226 ft 406 kts 28°
2026-04-29 19:31 44.03210 20.08913 20720 ft 399 kts 28°
2026-04-29 19:31 44.05488 20.11065 20232 ft 392 kts 29°
2026-04-29 19:32 44.07724 20.13182 19738 ft 386 kts 29°
2026-04-29 19:32 44.09928 20.15270 19255 ft 380 kts 29°
2026-04-29 19:32 44.12097 20.17329 18786 ft 375 kts 29°
2026-04-29 19:32 44.14316 20.19109 18278 ft 361 kts 14°
2026-04-29 19:33 44.16702 20.19907 17797 ft 348 kts
2026-04-29 19:33 44.19082 20.20352 17262 ft 343 kts
2026-04-29 19:33 44.21433 20.20730 16745 ft 338 kts
2026-04-29 19:33 44.23756 20.21078 16228 ft 334 kts
2026-04-29 19:34 44.26024 20.21403 15736 ft 330 kts
2026-04-29 19:34 44.27559 20.21626 15395 ft 328 kts
2026-04-29 19:34 44.29813 20.21970 14906 ft 324 kts
2026-04-29 19:34 44.32760 20.22448 14271 ft 320 kts
2026-04-29 19:35 44.34961 20.22821 13796 ft 317 kts
2026-04-29 19:35 44.37143 20.23199 13259 ft 315 kts
2026-04-29 19:35 44.38611 20.23456 12907 ft 313 kts
2026-04-29 19:35 44.40749 20.23833 12379 ft 307 kts
2026-04-29 19:36 44.43513 20.24324 11626 ft 298 kts
2026-04-29 19:36 44.44865 20.24564 11230 ft 294 kts
2026-04-29 19:36 44.46874 20.24922 10642 ft 287 kts
2026-04-29 19:36 44.48835 20.25283 10062 ft 282 kts
2026-04-29 19:37 44.50662 20.26280 9416 ft 287 kts 32°
2026-04-29 19:37 44.51656 20.27555 9008 ft 287 kts 45°
2026-04-29 19:37 44.53341 20.30383 8193 ft 283 kts 49°
2026-04-29 19:37 44.54568 20.32529 7592 ft 280 kts 49°
2026-04-29 19:38 44.55773 20.34649 6993 ft 276 kts 50°
2026-04-29 19:38 44.56961 20.36746 6399 ft 273 kts 50°
2026-04-29 19:38 44.58118 20.38829 5770 ft 269 kts 49°
2026-04-29 19:38 44.59285 20.40849 5158 ft 264 kts 49°
2026-04-29 19:39 44.60443 20.42817 4626 ft 257 kts 49°
2026-04-29 19:39 44.61548 20.44696 4384 ft 241 kts 49°
2026-04-29 19:39 44.62578 20.46470 4273 ft 231 kts 49°
2026-04-29 19:39 44.63588 20.48225 4242 ft 232 kts 50°
2026-04-29 19:40 44.64567 20.50015 4116 ft 232 kts 51°
2026-04-29 19:40 44.65530 20.51841 3936 ft 232 kts 52°
2026-04-29 19:40 44.66553 20.53567 3763 ft 228 kts 37°
2026-04-29 19:40 44.67954 20.54580 3606 ft 228 kts 12°
2026-04-29 19:41 44.69508 20.54515 3440 ft 227 kts 344°
2026-04-29 19:41 44.70916 20.53548 3245 ft 227 kts 321°
2026-04-29 19:41 44.72067 20.52044 3099 ft 225 kts 315°
2026-04-29 19:41 44.73047 20.50359 3057 ft 228 kts 307°
2026-04-29 19:42 44.73967 20.48567 3015 ft 226 kts 306°
2026-04-29 19:42 44.74544 20.47341 2929 ft 217 kts 304°
2026-04-29 19:42 44.75558 20.45055 2501 ft 200 kts 304°
2026-04-29 19:42 44.76281 20.43455 2249 ft 187 kts 304°
2026-04-29 19:43 44.76935 20.41998 2049 ft 165 kts 304°
2026-04-29 19:43 44.77515 20.40668 1770 ft 154 kts 303°
2026-04-29 19:43 44.78056 20.39419 1518 ft 146 kts 305°
2026-04-29 19:43 44.78589 20.38230 1298 ft 144 kts 305°
2026-04-29 19:44 44.79118 20.37003 1026 ft 146 kts 303°
2026-04-29 19:44 44.79649 20.35795 965 ft 147 kts 304°
2026-04-29 19:44 44.80212 20.34554 747 ft 151 kts 304°
2026-04-29 19:44 44.80776 20.33304 533 ft 150 kts 304°
2026-04-29 19:45 44.81322 20.32070 334 ft 146 kts 303°
2026-04-29 19:45 44.81829 20.30941 310 ft 121 kts 303°
2026-04-29 19:45 44.82065 20.30425 308 ft 42 kts 302°
2026-04-29 19:45 44.82164 20.30112 305 ft 19 kts 276°
2026-04-29 19:46 44.82170 20.29938 310 ft 17 kts 271°
2026-04-29 19:46 44.82164 20.29772 309 ft 17 kts 256°
2026-04-29 19:46 44.82098 20.29643 310 ft 16 kts 221°
2026-04-29 19:46 44.82003 20.29562 310 ft 16 kts 211°
2026-04-29 19:47 44.81911 20.29481 307 ft 15 kts 212°
2026-04-29 19:47 44.81818 20.29400 309 ft 14 kts 211°
2026-04-29 19:47 44.81799 20.29358 309 ft 3 kts 273°
2026-04-29 19:47 44.81805 20.29330 307 ft 4 kts 291°
2026-04-29 19:48 44.81817 20.29293 310 ft 4 kts 298°
2026-04-29 19:48 44.81828 20.29266 309 ft 5 kts 301°
2026-04-29 19:48 44.81845 20.29227 309 ft 1 kts 302°
2026-04-29 19:48 44.81850 20.29215 311 ft 0 kts 302°